Regional Weather Roundup
Issued by NWS Newport/Morehead, NC

Current Version | Previous Version | Graphics & Text | Print | Product List | Glossary Off
Versions: 1 2 3 4 5 6 7 8 9 10 11 12 13 14 15 16 17 18 19 20 21 22 23 24 25 26 27 28 29 30 31 32 33 34 35 36 37 38 39 40 41 42 43 44 45 46 47 48 49 50

000
ASUS42 KMHX 010510
RWRMHX
WEATHER ROUNDUP FOR EASTERN NORTH CAROLINA
NATIONAL WEATHER SERVICE NEWPORT/MOREHEAD CITY NC
100 AM EDT MON SEP 01 2014

NOTE: "FAIR" INDICATES FEW OR NO CLOUDS BELOW 12,000 FEET
WITH NO SIGNIFICANT WEATHER AND/OR OBSTRUCTIONS TO VISIBILITY

NCZ015>017-031-032-045>047-102-103-010600-
NORTH COAST

CITY           SKY/WX    TMP DP  RH WIND       PRES   REMARKS
EDENTON        CLEAR     78  75  91 S9        30.10S
ELIZABETH CITY CLEAR     78  74  87 S7        30.09F
KITTY HAWK     CLEAR     79  75  89 S5        30.10F
MANTEO         CLEAR     79  75  89 S12       30.11F

$$

NCZ045>047-081-094-103-104-010600-
CENTRAL COAST

CITY           SKY/WX    TMP DP  RH WIND       PRES   REMARKS
FRISCO         MOCLDY    80  76  87 SW12      30.13S
SWANQUARTER      N/A     81 N/A N/A S13       30.09S

$$

NCZ095-097-098-100-101-010600-
SOUTHERN COAST

CITY           SKY/WX    TMP DP  RH WIND       PRES   REMARKS
BEAUFORT       PTCLDY    82  76  81 SW9       30.12F
CEDAR ISLAND     N/A     79 N/A N/A S5        30.18S
JACKSONVILLE   CLEAR     77  75  93 CALM      30.11S
NEWPORT        NOT AVBL
PINEY ISLAND   CLEAR     79  76  90 S6        30.12F
WILMINGTON     CLEAR     77  75  93 S3        30.11S


$$

NCZ011>013-027>030-043-044-078>080-089-090>093-098-010600-
COASTAL PLAIN

CITY           SKY/WX    TMP DP  RH WIND       PRES   REMARKS
AHOSKIE        CLEAR     74  72  91 S3        30.09S
CLINTON        CLEAR     76  75  96 S3        30.11S
ELIZABETHTOWN  CLEAR     77  75  95 S5        30.10F
GOLDSBORO      CLEAR     77  76  98 S2        30.09S
GREENVILLE     CLEAR     77  75  94 SW8       30.11F
HAVELOCK       CLEAR     77  74  90 S5        30.13S
KENANSVILLE    CLEAR     75  73  92 CALM      30.12S
KINSTON        CLEAR     77  75  91 S6        30.11F
NEW BERN       CLEAR     78  74  87 CALM      30.13S
RICHLANDS      CLEAR     73  70  88 S5        30.12S
ROANOKE RAPIDS NOT AVBL
ROCKY MOUNT    CLEAR     76  73  91 S5        30.10S
WASHINGTON     CLEAR     76  74  93 S3        30.11S
WHITEVILLE     CLEAR     75  73  92 SE3       30.10F

$$

AMZ130-135-150-152-154-156-158-170-250-252-270-ANZ085-086-088-633-658-670-010600-
MARINE OBSERVATIONS

STATION/POSITION TIME  TEMP    WIND        PRES    WAVE   SWELL
                       AIR SEA DIR/SP/G            HT/PER HT/PER
                 (UTC) (F)     (DEG/KT/KT) (MB)    (FT/S) (FT/S)
CHESAPEAKE LIGHT 0400   79     200/ 18/ 20 1019.1
BUOY 44014       0500   78 78  200/ 14/ 16 1019.0    3/ 8   2/ 8
DUCK             0500   80 76  200/  8/ 10 1018.6
2E DUCK          0500                        N/A     2/ 8
OREGON INLET     0500   81 82  190/ 14/ 16 1019.7
BUOY 44095       0500      78                N/A     3/ 9
20E OREGON INLET NOT AVBL
HATTERAS CG      0500   81 84  220/  8/ 12 1020.8
DIAMOND BUOY     0500   80     200/ 16/ 17 1020.0    3/ 8   3/ 8
CAPE LOOKOUT     0400   81     200/  9/ 10 1020.1
BEAUFORT LAB     0500   82 83  210/  7/ 11 1019.5
30 SE NEW RIVER  0500   82 83  190/ 12/ 14 1020.3    3/ 9   2/ 9
5 SE WRIGHTSVILL 0400   79 82  200/ 14/ 16   N/A
BUOY 41002       0356   81 83  200/  6/  8 1022.1    3/ 9   3/ 9
BUOY 41004       0500   82 83  210/  8/ 10 1019.4    3/ 9   2/ 9

$$


USA.gov is the U.S. government's official web portal to all federal, state and local government web resources and services.